North Las Vegas, NV

3:07 AM PDT on April 25, 2017 (GMT -0700)
North Las Vegas

Weather History for KVGT - September, 2013

Change the Weather History Date:

Thursday, September 26, 2013

  Actual Average Record
Temperature  
Mean Temperature 66 °F 77 °F  
Max Temperature 73 °F 89 °F 101 °F (2003)
Min Temperature 61 °F 65 °F 60 °F (2013)
Degree Days  
Heating Degree Days 0 0  
Month to date heating degree days 0  
Since 1 July heating degree days 0  
Cooling Degree Days 2 12  
Month to date cooling degree days 441  
Year to date cooling degree days 3087  
Growing Degree Days 16 (Base 50)    
Moisture  
Dew Point 22 °F    
Average Humidity 19    
Maximum Humidity 26    
Minimum Humidity 11    
Precipitation  
Precipitation 0.00 in 0.01 in 0.11 in (2014)
Month to date precipitation 0.33  
Year to date precipitation 3.93  
Sea Level Pressure  
Sea Level Pressure 29.69 in    
Wind  
Wind Speed 15 mph (NW)    
Max Wind Speed 24 mph    
Max Gust Speed 30 mph    
Visibility 10 miles    
Events      
T = Trace of Precipitation, MM = Missing Value Source: NWS Daily Summary

Daily Weather History Graph

Daily Weather History Graph

Search for Another Location

Airport or City:

Trip Planner

Search our weather history database for the weather conditions in past years. The results will help you decide how hot, cold, wet, or windy it might be!

Date:

Astronomy

Sep. 26, 2013 Rise Set
Actual Time 6:32 AM PDT 6:31 PM PDT
Civil Twilight 6:06 AM PDT 6:56 PM PDT
Nautical Twilight 5:36 AM PDT 7:26 PM PDT
Astronomical Twilight 5:06 AM PDT 7:56 PM PDT
Moon 11:41 PM PDT (9/26) 1:18 PM PDT (9/26)
Length of Visible Light 12h 50m
Length of Day
11h 59m
Waning Gibbous, 53% of the Moon is Illuminated
Sep 26
Waning Gibbous
Sep 26
Last Quarter
Oct 4
New
Oct 11
First Quarter
Oct 18
Full

Hourly Weather History & Observations

Time (PDT) Temp. Dew Point Humidity Pressure Visibility Wind Dir Wind Speed Gust Speed Precip Events Conditions
12:53 AM 68.0 °F 30.0 °F 24% 29.54 in 10.0 mi South 24.2 mph 29.9 mph N/A   Widespread Dust
1:53 AM 66.9 °F 27.0 °F 22% 29.54 in 10.0 mi SSW 21.9 mph - N/A   Widespread Dust
2:53 AM 66.0 °F 24.1 °F 20% 29.55 in 10.0 mi SSW 17.3 mph 24.2 mph N/A   Widespread Dust
3:53 AM 64.9 °F 21.9 °F 19% 29.56 in 10.0 mi West 11.5 mph - N/A   Widespread Dust
4:53 AM 62.1 °F 21.9 °F 21% 29.58 in 10.0 mi SSW 8.1 mph - N/A   Widespread Dust
5:53 AM 61.0 °F 26.1 °F 26% 29.60 in 10.0 mi Calm Calm - N/A   Widespread Dust
6:53 AM 61.0 °F 25.0 °F 25% 29.63 in 10.0 mi Calm Calm - N/A   Widespread Dust
7:53 AM 61.0 °F 21.0 °F 21% 29.65 in 10.0 mi NNW 4.6 mph - N/A   Widespread Dust
8:53 AM 64.9 °F 25.0 °F 22% 29.65 in 10.0 mi North 15.0 mph 19.6 mph N/A   Clear
9:53 AM 66.9 °F 25.0 °F 21% 29.67 in 10.0 mi NNW 19.6 mph 28.8 mph N/A   Clear
10:53 AM 69.1 °F 24.1 °F 18% 29.68 in 10.0 mi North 13.8 mph 19.6 mph N/A   Clear
11:53 AM 71.1 °F 23.0 °F 16% 29.68 in 10.0 mi NNW 16.1 mph 24.2 mph N/A   Clear
12:53 PM 72.0 °F 23.0 °F 16% 29.69 in 10.0 mi NNW 12.7 mph 20.7 mph N/A   Clear
1:53 PM 71.1 °F 21.9 °F 16% 29.69 in 10.0 mi NW 15.0 mph 25.3 mph N/A   Mostly Cloudy
2:53 PM 72.0 °F 21.0 °F 15% 29.70 in 10.0 mi North 17.3 mph 27.6 mph N/A   Overcast
3:53 PM 71.1 °F 21.0 °F 15% 29.71 in 10.0 mi North 15.0 mph 21.9 mph N/A   Mostly Cloudy
4:53 PM 71.1 °F 18.0 °F 13% 29.73 in 10.0 mi North 16.1 mph 27.6 mph N/A   Mostly Cloudy
5:53 PM 70.0 °F 12.9 °F 11% 29.75 in 10.0 mi NNW 20.7 mph - N/A   Scattered Clouds
6:53 PM 68.0 °F 12.0 °F 11% 29.77 in 10.0 mi NW 8.1 mph - N/A   Clear
7:53 PM 66.0 °F 16.0 °F 15% 29.80 in 10.0 mi NW 12.7 mph - N/A   Clear
8:53 PM 64.9 °F 19.9 °F 18% 29.83 in 10.0 mi NW 16.1 mph - N/A   Clear
9:53 PM 64.0 °F 21.0 °F 19% 29.86 in 10.0 mi NNW 11.5 mph - N/A   Clear
10:53 PM 63.0 °F 19.9 °F 19% 29.88 in 10.0 mi NNW 9.2 mph - N/A   Clear
11:53 PM 62.1 °F 23.0 °F 22% 29.90 in 10.0 mi NNW 15.0 mph 20.7 mph N/A   Clear